Time,TemperatureF,DewpointF,PressureIn,WindDirection,WindDirectionDegrees,WindSpeedMPH,WindSpeedGustMPH,Humidity,HourlyPrecipIn,Conditions,Clouds,dailyrainin,SoftwareType,DateUTC
2013-02-16 00:00:00,19.2,18.5,31.01,North,10,0.0,0.0,97,0.00,,,0.00,WeatherDisplay:10.37,2013-02-16 05:00:00,
2013-02-16 00:02:00,19.1,18.4,31.01,North,10,0.0,0.0,97,0.00,,,0.00,WeatherDisplay:10.37,2013-02-16 05:02:00,
2013-02-16 00:08:00,18.9,18.2,31.01,North,10,0.0,0.0,97,0.00,,,0.00,WeatherDisplay:10.37,2013-02-16 05:08:00,
2013-02-16 00:13:00,18.8,18.1,31.01,North,10,0.0,0.0,97,0.00,,,0.00,WeatherDisplay:10.37,2013-02-16 05:13:00,
2013-02-16 00:16:00,18.8,18.1,31.01,North,10,0.0,0.0,97,0.00,,,0.00,WeatherDisplay:10.37,2013-02-16 05:16:00,
2013-02-16 00:21:00,18.7,18.0,31.01,North,10,0.0,0.0,97,0.00,,,0.00,WeatherDisplay:10.37,2013-02-16 05:21:00,
2013-02-16 00:22:00,18.8,18.1,31.01,North,10,0.0,0.0,97,0.00,,,0.00,WeatherDisplay:10.37,2013-02-16 05:22:00,
2013-02-16 00:27:00,18.7,18.0,31.01,North,10,0.0,0.0,97,0.00,,,0.00,WeatherDisplay:10.37,2013-02-16 05:27:00,
2013-02-16 00:29:00,18.6,17.9,31.01,North,10,0.0,0.0,97,0.00,,,0.00,WeatherDisplay:10.37,2013-02-16 05:29:00,
2013-02-16 00:34:00,18.4,17.7,31.01,North,10,0.0,0.0,97,0.00,,,0.00,WeatherDisplay:10.37,2013-02-16 05:34:00,
2013-02-16 00:39:00,18.5,17.8,31.01,North,10,0.0,0.0,97,0.00,,,0.00,WeatherDisplay:10.37,2013-02-16 05:39:00,
2013-02-16 00:44:00,18.6,17.9,31.00,North,10,0.0,0.0,97,0.00,,,0.00,WeatherDisplay:10.37,2013-02-16 05:44:00,
2013-02-16 00:49:00,18.6,17.9,31.00,North,10,0.0,0.0,97,0.00,,,0.00,WeatherDisplay:10.37,2013-02-16 05:49:00,
2013-02-16 00:54:00,18.5,17.8,31.00,North,10,0.0,0.0,97,0.00,,,0.00,WeatherDisplay:10.37,2013-02-16 05:54:00,
2013-02-16 00:59:00,18.4,17.7,31.00,North,10,0.0,0.0,97,0.00,,,0.00,WeatherDisplay:10.37,2013-02-16 05:59:00,
2013-02-16 01:05:00,18.4,17.7,31.00,North,10,0.0,0.0,97,0.00,,,0.00,WeatherDisplay:10.37,2013-02-16 06:05:00,
2013-02-16 01:10:00,18.5,17.8,31.00,North,10,0.0,0.0,97,0.00,,,0.00,WeatherDisplay:10.37,2013-02-16 06:10:00,
2013-02-16 01:15:00,18.6,17.9,31.00,North,10,0.0,0.0,97,0.00,,,0.00,WeatherDisplay:10.37,2013-02-16 06:15:00,
2013-02-16 01:20:00,18.7,18.0,31.00,North,10,0.0,0.0,97,0.00,,,0.00,WeatherDisplay:10.37,2013-02-16 06:20:00,
2013-02-16 01:25:00,18.7,18.0,31.00,North,10,0.0,0.0,97,0.00,,,0.00,WeatherDisplay:10.37,2013-02-16 06:25:00,
2013-02-16 01:30:00,18.7,18.0,31.00,North,10,0.0,0.0,97,0.00,,,0.00,WeatherDisplay:10.37,2013-02-16 06:30:00,
2013-02-16 01:36:00,18.5,17.8,30.99,North,9,0.0,0.0,97,0.00,,,0.00,WeatherDisplay:10.37,2013-02-16 06:36:00,
2013-02-16 01:41:00,18.4,17.7,30.99,North,10,0.0,0.0,97,0.00,,,0.00,WeatherDisplay:10.37,2013-02-16 06:41:00,
2013-02-16 01:46:00,18.3,17.6,30.99,North,10,0.0,0.0,97,0.00,,,0.00,WeatherDisplay:10.37,2013-02-16 06:46:00,
2013-02-16 01:51:00,18.3,17.6,30.99,North,10,0.0,0.0,97,0.00,,,0.00,WeatherDisplay:10.37,2013-02-16 06:51:00,
2013-02-16 01:56:00,18.4,17.7,30.99,North,10,0.0,0.0,97,0.00,,,0.00,WeatherDisplay:10.37,2013-02-16 06:56:00,
2013-02-16 02:02:00,18.8,18.1,30.99,North,10,0.0,0.0,97,0.00,,,0.00,WeatherDisplay:10.37,2013-02-16 07:02:00,
2013-02-16 02:07:00,18.9,18.2,30.99,North,10,0.0,0.0,97,0.00,,,0.00,WeatherDisplay:10.37,2013-02-16 07:07:00,
2013-02-16 02:12:00,19.0,18.3,30.99,North,10,0.0,0.0,97,0.00,,,0.00,WeatherDisplay:10.37,2013-02-16 07:12:00,
2013-02-16 02:18:00,19.1,18.4,30.98,North,10,0.0,0.0,97,0.00,,,0.00,WeatherDisplay:10.37,2013-02-16 07:18:00,
2013-02-16 02:23:00,19.0,18.3,30.99,North,10,0.0,0.0,97,0.00,,,0.00,WeatherDisplay:10.37,2013-02-16 07:23:00,
2013-02-16 02:28:00,18.9,18.2,30.99,North,10,0.0,0.0,97,0.00,,,0.00,WeatherDisplay:10.37,2013-02-16 07:28:00,
2013-02-16 02:33:00,18.9,18.2,30.98,North,10,0.0,0.0,97,0.00,,,0.00,WeatherDisplay:10.37,2013-02-16 07:33:00,
2013-02-16 02:38:00,19.0,18.3,30.98,North,10,0.0,0.0,97,0.00,,,0.00,WeatherDisplay:10.37,2013-02-16 07:38:00,
2013-02-16 02:43:00,19.1,18.4,30.98,North,10,0.0,0.0,97,0.00,,,0.00,WeatherDisplay:10.37,2013-02-16 07:43:00,
2013-02-16 02:48:00,19.1,18.4,30.98,North,10,0.0,0.0,97,0.00,,,0.00,WeatherDisplay:10.37,2013-02-16 07:48:00,
2013-02-16 02:54:00,19.2,18.5,30.98,North,10,0.0,0.0,97,0.00,,,0.00,WeatherDisplay:10.37,2013-02-16 07:54:00,
2013-02-16 02:59:00,19.2,18.5,30.98,North,10,0.0,0.0,97,0.00,,,0.00,WeatherDisplay:10.37,2013-02-16 07:59:00,
2013-02-16 03:04:00,19.3,18.6,30.98,North,10,0.0,0.0,97,0.00,,,0.00,WeatherDisplay:10.37,2013-02-16 08:04:00,
2013-02-16 03:09:00,19.3,18.6,30.98,North,10,0.0,0.0,97,0.00,,,0.00,WeatherDisplay:10.37,2013-02-16 08:09:00,
2013-02-16 03:14:00,19.4,18.7,30.97,North,10,0.0,0.0,97,0.00,,,0.00,WeatherDisplay:10.37,2013-02-16 08:14:00,
2013-02-16 03:19:00,19.4,18.7,30.97,North,10,0.0,0.0,97,0.00,,,0.00,WeatherDisplay:10.37,2013-02-16 08:19:00,
2013-02-16 03:24:00,19.5,18.8,30.97,North,10,0.0,0.0,97,0.00,,,0.00,WeatherDisplay:10.37,2013-02-16 08:24:00,
2013-02-16 03:29:00,19.7,19.0,30.97,North,10,0.0,0.0,97,0.00,,,0.00,WeatherDisplay:10.37,2013-02-16 08:29:00,
2013-02-16 03:34:00,19.8,19.1,30.97,North,10,0.0,0.0,97,0.00,,,0.00,WeatherDisplay:10.37,2013-02-16 08:34:00,
2013-02-16 03:39:00,19.9,19.2,30.97,North,10,0.0,0.0,97,0.00,,,0.00,WeatherDisplay:10.37,2013-02-16 08:39:00,
2013-02-16 03:44:00,19.9,19.2,30.97,North,10,0.0,0.0,97,0.00,,,0.00,WeatherDisplay:10.37,2013-02-16 08:44:00,
2013-02-16 03:49:00,20.0,19.3,30.97,North,10,0.0,0.0,97,0.00,,,0.00,WeatherDisplay:10.37,2013-02-16 08:49:00,
2013-02-16 03:54:00,20.0,19.3,30.97,North,10,0.0,0.0,97,0.00,,,0.00,WeatherDisplay:10.37,2013-02-16 08:54:00,
2013-02-16 03:59:00,20.0,19.3,30.96,North,10,0.0,0.0,97,0.00,,,0.00,WeatherDisplay:10.37,2013-02-16 08:59:00,
2013-02-16 04:04:00,20.0,19.3,30.96,North,9,0.0,0.0,97,0.00,,,0.00,WeatherDisplay:10.37,2013-02-16 09:04:00,
2013-02-16 04:09:00,20.0,19.3,30.96,North,9,0.0,0.0,97,0.00,,,0.00,WeatherDisplay:10.37,2013-02-16 09:09:00,
2013-02-16 04:14:00,19.9,19.2,30.96,North,9,0.0,0.0,97,0.01,RA,,0.01,WeatherDisplay:10.37,2013-02-16 09:14:00,
2013-02-16 04:19:00,19.9,19.2,30.96,North,9,0.0,0.0,97,0.01,RA,,0.01,WeatherDisplay:10.37,2013-02-16 09:19:00,
2013-02-16 04:24:00,19.9,19.2,30.96,North,9,0.0,0.0,97,0.01,RA,,0.01,WeatherDisplay:10.37,2013-02-16 09:24:00,
2013-02-16 04:29:00,19.9,19.2,30.96,North,9,0.0,0.0,97,0.01,CLR,,0.01,WeatherDisplay:10.37,2013-02-16 09:29:00,
2013-02-16 04:34:00,20.0,19.3,30.96,North,9,0.0,0.0,97,0.01,CLR,,0.01,WeatherDisplay:10.37,2013-02-16 09:34:00,
2013-02-16 04:39:00,19.9,19.2,30.95,North,9,0.0,0.0,97,0.01,CLR,,0.01,WeatherDisplay:10.37,2013-02-16 09:39:00,
2013-02-16 04:44:00,19.9,19.2,30.95,North,9,0.0,0.0,97,0.01,CLR,,0.01,WeatherDisplay:10.37,2013-02-16 09:44:00,
2013-02-16 04:49:00,19.8,19.1,30.95,North,9,0.0,0.0,97,0.01,CLR,,0.01,WeatherDisplay:10.37,2013-02-16 09:49:00,
2013-02-16 04:54:00,19.9,19.2,30.95,North,355,0.0,0.0,97,0.01,CLR,,0.01,WeatherDisplay:10.37,2013-02-16 09:54:00,
2013-02-16 04:59:00,19.8,19.1,30.96,North,355,0.0,0.0,97,0.01,CLR,,0.01,WeatherDisplay:10.37,2013-02-16 09:59:00,
2013-02-16 05:04:00,19.8,19.1,30.96,North,355,0.0,0.0,97,0.01,CLR,,0.01,WeatherDisplay:10.37,2013-02-16 10:04:00,
2013-02-16 05:09:00,19.8,19.1,30.96,NNW,327,0.0,0.0,97,0.01,CLR,,0.01,WeatherDisplay:10.37,2013-02-16 10:09:00,
2013-02-16 05:14:00,19.8,19.1,30.96,NNW,327,0.0,0.0,97,0.00,,,0.01,WeatherDisplay:10.37,2013-02-16 10:14:00,
2013-02-16 05:19:00,19.8,19.1,30.96,NNW,327,0.0,0.0,97,0.00,,,0.01,WeatherDisplay:10.37,2013-02-16 10:19:00,
2013-02-16 05:24:00,19.8,19.1,30.96,NNW,327,0.0,0.0,97,0.00,,,0.01,WeatherDisplay:10.37,2013-02-16 10:24:00,
2013-02-16 05:29:00,19.7,19.0,30.95,NNW,327,0.0,0.0,97,0.00,,,0.01,WeatherDisplay:10.37,2013-02-16 10:29:00,
2013-02-16 05:34:00,19.7,19.0,30.95,NNW,327,0.0,0.0,97,0.00,,,0.01,WeatherDisplay:10.37,2013-02-16 10:34:00,
2013-02-16 05:39:00,19.6,18.9,30.96,NNW,327,0.0,0.0,97,0.00,,,0.01,WeatherDisplay:10.37,2013-02-16 10:39:00,
2013-02-16 05:44:00,19.5,18.8,30.95,NNW,327,0.0,0.0,97,0.00,,,0.01,WeatherDisplay:10.37,2013-02-16 10:44:00,
2013-02-16 05:49:00,19.5,18.8,30.95,NNW,327,0.0,0.0,97,0.00,,,0.01,WeatherDisplay:10.37,2013-02-16 10:49:00,
2013-02-16 05:54:00,19.5,18.8,30.95,NNW,327,0.0,0.0,97,0.00,,,0.01,WeatherDisplay:10.37,2013-02-16 10:54:00,
2013-02-16 05:59:00,19.4,18.7,30.95,NNW,327,0.0,0.0,97,0.00,,,0.01,WeatherDisplay:10.37,2013-02-16 10:59:00,
2013-02-16 06:04:00,19.3,18.6,30.95,NNW,327,0.0,0.0,97,0.00,,,0.01,WeatherDisplay:10.37,2013-02-16 11:04:00,
2013-02-16 06:09:00,19.3,18.6,30.95,NNW,327,0.0,0.0,97,0.00,,,0.01,WeatherDisplay:10.37,2013-02-16 11:09:00,
2013-02-16 06:14:00,19.2,18.5,30.95,NNW,327,0.0,0.0,97,0.00,,,0.01,WeatherDisplay:10.37,2013-02-16 11:14:00,
2013-02-16 06:19:00,19.2,18.5,30.95,NNW,327,0.0,0.0,97,0.00,,,0.01,WeatherDisplay:10.37,2013-02-16 11:19:00,
2013-02-16 06:24:00,19.2,18.5,30.95,NNW,327,0.0,0.0,97,0.00,,,0.01,WeatherDisplay:10.37,2013-02-16 11:24:00,
2013-02-16 06:29:00,19.2,18.5,30.95,NNW,327,0.0,0.0,97,0.00,,,0.01,WeatherDisplay:10.37,2013-02-16 11:29:00,
2013-02-16 06:34:00,19.2,18.5,30.95,NNW,327,0.0,0.0,97,0.00,,,0.01,WeatherDisplay:10.37,2013-02-16 11:34:00,
2013-02-16 06:39:00,19.1,18.1,30.95,West,277,0.0,0.0,96,0.00,,,0.01,WeatherDisplay:10.37,2013-02-16 11:39:00,
2013-02-16 06:44:00,19.1,18.1,30.95,West,265,0.0,0.0,96,0.00,,,0.01,WeatherDisplay:10.37,2013-02-16 11:44:00,
2013-02-16 06:49:00,19.0,18.0,30.94,West,265,0.0,0.0,96,0.00,,,0.01,WeatherDisplay:10.37,2013-02-16 11:49:00,
2013-02-16 06:54:00,18.8,17.6,30.95,West,265,0.0,0.0,95,0.00,CLR,,0.01,WeatherDisplay:10.37,2013-02-16 11:54:00,
2013-02-16 06:59:00,18.5,17.3,30.94,West,265,0.0,0.0,95,0.00,CLR,,0.01,WeatherDisplay:10.37,2013-02-16 11:59:00,
2013-02-16 07:04:00,18.2,17.0,30.94,West,265,0.0,0.0,95,0.00,CLR,,0.01,WeatherDisplay:10.37,2013-02-16 12:04:00,
2013-02-16 07:09:00,17.9,16.7,30.94,West,265,0.0,0.0,95,0.00,CLR,,0.01,WeatherDisplay:10.37,2013-02-16 12:09:00,
2013-02-16 07:14:00,17.5,16.3,30.94,West,265,0.0,0.0,95,0.00,CLR,,0.01,WeatherDisplay:10.37,2013-02-16 12:14:00,
2013-02-16 07:19:00,17.2,16.3,30.95,West,265,0.0,0.0,96,0.00,,,0.01,WeatherDisplay:10.37,2013-02-16 12:19:00,
2013-02-16 07:24:00,17.1,16.2,30.95,West,265,0.0,0.0,96,0.00,,,0.01,WeatherDisplay:10.37,2013-02-16 12:24:00,
2013-02-16 07:29:00,16.7,15.8,30.95,West,265,0.0,0.0,96,0.00,,,0.01,WeatherDisplay:10.37,2013-02-16 12:29:00,
2013-02-16 07:34:00,16.1,14.9,30.95,West,265,0.0,0.0,95,0.00,CLR,,0.01,WeatherDisplay:10.37,2013-02-16 12:34:00,
2013-02-16 07:39:00,16.1,15.2,30.95,NW,315,0.0,0.0,96,0.00,,,0.01,WeatherDisplay:10.37,2013-02-16 12:39:00,
2013-02-16 07:44:00,16.3,15.4,30.95,WNW,286,0.0,1.2,96,0.00,,,0.01,WeatherDisplay:10.37,2013-02-16 12:44:00,
2013-02-16 07:50:00,17.2,16.5,30.96,NNW,340,0.1,1.2,97,0.00,,,0.01,WeatherDisplay:10.37,2013-02-16 12:50:00,
2013-02-16 07:55:00,17.8,17.1,30.96,NNW,344,1.4,3.0,97,0.00,,,0.01,WeatherDisplay:10.37,2013-02-16 12:55:00,
2013-02-16 08:01:00,17.8,16.9,30.96,NNW,340,1.0,3.5,96,0.00,,,0.01,WeatherDisplay:10.37,2013-02-16 13:01:00,
2013-02-16 08:06:00,17.6,16.7,30.96,NNW,327,0.0,0.0,96,0.00,,,0.01,WeatherDisplay:10.37,2013-02-16 13:06:00,
2013-02-16 08:11:00,17.5,16.3,30.96,NNW,345,2.2,2.3,95,0.00,,,0.01,WeatherDisplay:10.37,2013-02-16 13:11:00,
2013-02-16 08:17:00,17.3,16.1,30.96,NNW,330,1.3,2.3,95,0.00,CLR,,0.01,WeatherDisplay:10.37,2013-02-16 13:17:00,
2013-02-16 08:22:00,17.1,15.9,30.96,NNW,339,0.3,1.0,95,0.00,CLR,,0.01,WeatherDisplay:10.37,2013-02-16 13:22:00,
2013-02-16 08:27:00,16.8,15.6,30.96,NW,323,2.3,3.5,95,0.00,CLR,,0.01,WeatherDisplay:10.37,2013-02-16 13:27:00,
2013-02-16 08:32:00,16.7,15.5,30.97,NNW,338,0.0,3.5,95,0.00,CLR,,0.01,WeatherDisplay:10.37,2013-02-16 13:32:00,
2013-02-16 08:37:00,16.5,15.3,30.96,North,9,0.0,3.5,95,0.00,CLR,,0.01,WeatherDisplay:10.37,2013-02-16 13:37:00,
2013-02-16 08:43:00,16.4,15.0,30.97,North,351,0.4,3.5,94,0.00,CLR,,0.01,WeatherDisplay:10.37,2013-02-16 13:43:00,
2013-02-16 08:48:00,16.3,14.9,30.97,NW,313,0.2,1.2,94,0.00,CLR,,0.01,WeatherDisplay:10.37,2013-02-16 13:48:00,
2013-02-16 08:53:00,16.2,14.8,30.97,NE,48,0.9,1.0,94,0.00,CLR,,0.01,WeatherDisplay:10.37,2013-02-16 13:53:00,
2013-02-16 08:58:00,16.3,14.9,30.97,North,355,0.0,0.0,94,0.00,CLR,,0.01,WeatherDisplay:10.37,2013-02-16 13:58:00,
2013-02-16 09:04:00,16.7,15.0,30.97,NNE,30,0.0,0.0,93,0.00,CLR,,0.01,WeatherDisplay:10.37,2013-02-16 14:04:00,
2013-02-16 09:09:00,17.0,15.1,30.97,NNW,336,0.3,2.3,92,0.00,CLR,,0.01,WeatherDisplay:10.37,2013-02-16 14:09:00,
2013-02-16 09:15:00,17.1,14.9,30.97,NNW,347,0.1,3.5,91,0.00,CLR,,0.01,WeatherDisplay:10.37,2013-02-16 14:15:00,
2013-02-16 09:20:00,17.1,14.9,30.97,North,355,0.8,3.0,91,0.00,CLR,,0.01,WeatherDisplay:10.37,2013-02-16 14:20:00,
2013-02-16 09:25:00,17.0,14.8,30.97,North,355,0.8,3.5,91,0.00,CLR,,0.01,WeatherDisplay:10.37,2013-02-16 14:25:00,
2013-02-16 09:30:00,17.0,14.8,30.97,NE,55,0.4,2.3,91,0.00,CLR,,0.01,WeatherDisplay:10.37,2013-02-16 14:30:00,
2013-02-16 09:35:00,16.9,14.5,30.97,NNW,329,0.5,2.3,90,0.00,CLR,,0.01,WeatherDisplay:10.37,2013-02-16 14:35:00,
2013-02-16 09:41:00,17.2,14.8,30.97,NW,308,0.0,4.6,90,0.00,CLR,,0.01,WeatherDisplay:10.37,2013-02-16 14:41:00,
2013-02-16 09:46:00,17.5,14.8,30.97,NE,53,2.7,6.9,89,0.00,CLR,,0.01,WeatherDisplay:10.37,2013-02-16 14:46:00,
2013-02-16 09:51:00,17.4,14.5,30.97,NE,37,1.5,3.5,88,0.00,CLR,,0.01,WeatherDisplay:10.37,2013-02-16 14:51:00,
2013-02-16 09:57:00,17.6,14.7,30.97,NNE,14,0.6,3.5,88,0.00,CLR,,0.01,WeatherDisplay:10.37,2013-02-16 14:57:00,
2013-02-16 10:02:00,18.2,15.2,30.97,North,355,3.8,5.8,88,0.00,CLR,,0.01,WeatherDisplay:10.37,2013-02-16 15:02:00,
2013-02-16 10:07:00,18.6,15.4,30.97,North,355,3.2,6.0,87,0.00,CLR,,0.01,WeatherDisplay:10.37,2013-02-16 15:07:00,
2013-02-16 10:12:00,18.9,15.4,30.97,ENE,61,3.0,9.2,86,0.00,CLR,,0.01,WeatherDisplay:10.37,2013-02-16 15:12:00,
2013-02-16 10:19:00,19.1,15.3,30.97,North,5,2.3,5.0,85,0.00,CLR,,0.01,WeatherDisplay:10.37,2013-02-16 15:19:00,
2013-02-16 10:25:00,19.1,15.3,30.97,NNW,340,2.4,6.0,85,0.00,CLR,,0.01,WeatherDisplay:10.37,2013-02-16 15:25:00,
2013-02-16 10:30:00,19.0,15.0,30.97,NE,43,2.5,4.6,84,0.00,CLR,,0.01,WeatherDisplay:10.37,2013-02-16 15:30:00,
2013-02-16 10:35:00,19.0,15.2,30.97,NNE,32,1.4,3.0,85,0.00,CLR,,0.01,WeatherDisplay:10.37,2013-02-16 15:35:00,
2013-02-16 10:40:00,19.4,15.4,30.97,NE,53,3.3,6.9,84,0.00,CLR,,0.01,WeatherDisplay:10.37,2013-02-16 15:40:00,
2013-02-16 10:45:00,19.4,15.4,30.97,NW,314,0.8,3.5,84,0.00,CLR,,0.01,WeatherDisplay:10.37,2013-02-16 15:45:00,
2013-02-16 10:50:00,19.6,16.1,30.97,NNE,12,2.0,3.5,86,0.00,CLR,,0.01,WeatherDisplay:10.37,2013-02-16 15:50:00,
2013-02-16 10:55:00,19.2,15.4,30.97,ENE,61,1.4,4.0,85,0.00,CLR,,0.01,WeatherDisplay:10.37,2013-02-16 15:55:00,
2013-02-16 11:00:00,18.7,15.7,30.97,North,11,2.3,3.5,88,0.00,CLR,,0.01,WeatherDisplay:10.37,2013-02-16 16:00:00,
2013-02-16 11:05:00,18.2,15.8,30.98,NNW,345,0.9,4.6,90,0.00,CLR,,0.01,WeatherDisplay:10.37,2013-02-16 16:05:00,
2013-02-16 11:11:00,18.3,16.4,30.98,North,5,1.6,3.5,92,0.00,CLR,,0.01,WeatherDisplay:10.37,2013-02-16 16:11:00,
2013-02-16 11:16:00,18.4,16.5,30.97,NNE,23,0.8,3.5,92,0.00,CLR,,0.01,WeatherDisplay:10.37,2013-02-16 16:16:00,
2013-02-16 11:22:00,18.1,16.2,30.97,North,10,1.9,2.3,92,0.00,CLR,,0.01,WeatherDisplay:10.37,2013-02-16 16:22:00,
2013-02-16 11:27:00,18.1,16.2,30.97,NE,36,0.8,3.5,92,0.00,CLR,,0.01,WeatherDisplay:10.37,2013-02-16 16:27:00,
2013-02-16 11:32:00,18.4,16.2,30.97,NW,324,1.3,3.0,91,0.00,CLR,,0.01,WeatherDisplay:10.37,2013-02-16 16:32:00,
2013-02-16 11:37:00,18.8,15.8,30.97,NE,41,0.9,3.5,88,0.00,CLR,,0.01,WeatherDisplay:10.37,2013-02-16 16:37:00,
2013-02-16 11:42:00,19.1,15.3,30.97,NNE,13,0.2,3.5,85,0.00,CLR,,0.01,WeatherDisplay:10.37,2013-02-16 16:42:00,
2013-02-16 11:47:00,19.6,15.3,30.97,North,355,3.7,8.1,83,0.00,CLR,,0.01,WeatherDisplay:10.37,2013-02-16 16:47:00,
2013-02-16 11:52:00,20.2,15.0,30.97,North,360,1.0,8.1,80,0.00,CLR,,0.01,WeatherDisplay:10.37,2013-02-16 16:52:00,
2013-02-16 11:57:00,20.6,15.1,30.97,North,360,3.9,6.9,79,0.00,CLR,,0.01,WeatherDisplay:10.37,2013-02-16 16:57:00,
2013-02-16 12:03:00,20.1,14.9,30.97,North,5,3.5,6.9,80,0.00,CLR,,0.01,WeatherDisplay:10.37,2013-02-16 17:03:00,
2013-02-16 12:08:00,19.5,14.9,30.97,NW,325,2.2,4.6,82,0.00,CLR,,0.01,WeatherDisplay:10.37,2013-02-16 17:08:00,
2013-02-16 12:14:00,19.0,13.6,30.97,WNW,299,2.1,5.8,79,0.00,CLR,,0.01,WeatherDisplay:10.37,2013-02-16 17:14:00,
2013-02-16 12:19:00,19.3,14.1,30.97,NNW,342,0.0,4.6,80,0.00,CLR,,0.01,WeatherDisplay:10.37,2013-02-16 17:19:00,
2013-02-16 12:24:00,20.0,14.2,30.97,NW,317,2.7,4.6,78,0.00,CLR,,0.01,WeatherDisplay:10.37,2013-02-16 17:24:00,
2013-02-16 12:29:00,20.9,14.5,30.96,NW,323,1.5,4.6,76,0.00,CLR,,0.01,WeatherDisplay:10.37,2013-02-16 17:29:00,
2013-02-16 12:34:00,20.2,13.8,30.96,North,350,2.6,4.6,76,0.00,CLR,,0.01,WeatherDisplay:10.37,2013-02-16 17:34:00,
2013-02-16 12:40:00,19.9,13.9,30.96,North,350,4.7,8.1,77,0.00,CLR,,0.01,WeatherDisplay:10.37,2013-02-16 17:40:00,
2013-02-16 12:45:00,19.8,13.8,30.96,West,266,3.2,5.8,77,0.00,CLR,,0.01,WeatherDisplay:10.37,2013-02-16 17:45:00,
2013-02-16 12:50:00,19.6,14.1,30.96,NNW,348,3.2,5.8,79,0.00,CLR,,0.01,WeatherDisplay:10.37,2013-02-16 17:50:00,
2013-02-16 12:55:00,18.9,13.5,30.96,NW,316,2.7,6.9,79,0.00,CLR,,0.01,WeatherDisplay:10.37,2013-02-16 17:55:00,
2013-02-16 13:00:00,18.8,13.7,30.96,West,281,0.6,4.0,80,0.00,CLR,,0.01,WeatherDisplay:10.37,2013-02-16 18:00:00,
2013-02-16 13:05:00,19.6,14.4,30.96,NW,308,2.0,2.3,80,0.00,CLR,,0.01,WeatherDisplay:10.37,2013-02-16 18:05:00,
2013-02-16 13:10:00,19.8,15.7,30.96,NNE,15,4.0,13.0,84,0.00,CLR,,0.01,WeatherDisplay:10.37,2013-02-16 18:10:00,
2013-02-16 13:16:00,18.7,16.0,30.96,WNW,288,3.8,5.8,89,0.00,CLR,,0.01,WeatherDisplay:10.37,2013-02-16 18:16:00,
2013-02-16 13:21:00,18.1,15.7,30.96,NW,313,0.8,8.1,90,0.00,CLR,,0.01,WeatherDisplay:10.37,2013-02-16 18:21:00,
2013-02-16 13:27:00,18.6,16.4,30.95,NNW,328,1.4,1.4,91,0.01,RA,,0.02,WeatherDisplay:10.37,2013-02-16 18:27:00,
2013-02-16 13:32:00,19.8,17.1,30.95,WNW,302,2.0,3.5,89,0.01,RA,,0.02,WeatherDisplay:10.37,2013-02-16 18:32:00,
2013-02-16 13:38:00,20.2,16.4,30.95,WNW,295,2.1,4.6,85,0.01,RA,,0.02,WeatherDisplay:10.37,2013-02-16 18:38:00,
2013-02-16 13:43:00,19.8,15.2,30.95,NNW,340,4.9,10.4,82,0.01,CLR,,0.02,WeatherDisplay:10.37,2013-02-16 18:43:00,
2013-02-16 13:48:00,20.0,15.1,30.95,NW,304,4.1,8.1,81,0.01,CLR,,0.02,WeatherDisplay:10.37,2013-02-16 18:48:00,
2013-02-16 13:53:00,19.6,15.3,30.95,NW,309,3.4,6.0,83,0.01,CLR,,0.02,WeatherDisplay:10.37,2013-02-16 18:53:00,
2013-02-16 13:58:00,18.6,15.6,30.95,NW,317,1.7,4.6,88,0.01,CLR,,0.02,WeatherDisplay:10.37,2013-02-16 18:58:00,
2013-02-16 14:03:00,17.9,15.5,30.95,NE,38,3.6,11.5,90,0.01,CLR,,0.02,WeatherDisplay:10.37,2013-02-16 19:03:00,
2013-02-16 14:08:00,18.2,15.0,30.95,NW,321,2.0,4.6,87,0.01,CLR,,0.02,WeatherDisplay:10.37,2013-02-16 19:08:00,
2013-02-16 14:13:00,18.4,14.6,30.95,NNW,330,1.8,4.0,85,0.01,CLR,,0.02,WeatherDisplay:10.37,2013-02-16 19:13:00,
2013-02-16 14:18:00,18.7,15.2,30.95,NW,308,0.3,4.6,86,0.01,CLR,,0.02,WeatherDisplay:10.37,2013-02-16 19:18:00,
2013-02-16 14:23:00,20.1,16.6,30.95,WNW,294,0.6,3.0,86,0.01,CLR,,0.03,WeatherDisplay:10.37,2013-02-16 19:23:00,
2013-02-16 14:28:00,20.6,16.3,30.95,WNW,296,3.4,6.0,83,0.01,RA,,0.03,WeatherDisplay:10.37,2013-02-16 19:28:00,
2013-02-16 14:33:00,19.2,15.2,30.95,North,360,2.7,4.6,84,0.01,RA,,0.03,WeatherDisplay:10.37,2013-02-16 19:33:00,
2013-02-16 14:39:00,18.1,15.4,30.95,NW,312,1.0,2.0,89,0.01,,,0.03,WeatherDisplay:10.37,2013-02-16 19:39:00,
2013-02-16 14:44:00,18.1,15.7,30.95,NW,305,0.0,2.3,90,0.01,CLR,,0.03,WeatherDisplay:10.37,2013-02-16 19:44:00,
2013-02-16 14:49:00,18.7,15.7,30.95,NW,315,2.0,3.5,88,0.01,CLR,,0.03,WeatherDisplay:10.37,2013-02-16 19:49:00,
2013-02-16 14:54:00,19.1,15.6,30.95,WNW,295,2.6,4.6,86,0.01,CLR,,0.03,WeatherDisplay:10.37,2013-02-16 19:54:00,
2013-02-16 14:59:00,19.6,15.3,30.95,West,271,2.8,4.6,83,0.01,CLR,,0.03,WeatherDisplay:10.37,2013-02-16 19:59:00,
2013-02-16 15:04:00,19.9,15.6,30.94,WNW,292,2.1,4.0,83,0.01,CLR,,0.03,WeatherDisplay:10.37,2013-02-16 20:04:00,
2013-02-16 15:09:00,20.5,15.9,30.95,NW,317,1.3,6.9,82,0.01,CLR,,0.03,WeatherDisplay:10.37,2013-02-16 20:09:00,
2013-02-16 15:14:00,20.9,15.7,30.94,NW,304,3.4,6.9,80,0.01,CLR,,0.03,WeatherDisplay:10.37,2013-02-16 20:14:00,
2013-02-16 15:19:00,20.1,14.6,30.95,NNW,327,4.2,8.1,79,0.01,CLR,,0.03,WeatherDisplay:10.37,2013-02-16 20:19:00,
2013-02-16 15:24:00,19.1,14.5,30.95,NW,326,1.3,4.6,82,0.00,CLR,,0.03,WeatherDisplay:10.37,2013-02-16 20:24:00,
2013-02-16 15:29:00,18.6,14.6,30.95,WNW,298,0.7,3.5,84,0.00,CLR,,0.03,WeatherDisplay:10.37,2013-02-16 20:29:00,
2013-02-16 15:34:00,18.4,14.1,30.95,WNW,303,3.7,4.6,83,0.00,CLR,,0.03,WeatherDisplay:10.37,2013-02-16 20:34:00,
2013-02-16 15:39:00,18.4,13.5,30.95,NW,311,2.1,3.5,81,0.00,CLR,,0.03,WeatherDisplay:10.37,2013-02-16 20:39:00,
2013-02-16 15:44:00,18.8,14.2,30.95,North,355,1.4,4.6,82,0.00,CLR,,0.03,WeatherDisplay:10.37,2013-02-16 20:44:00,
2013-02-16 15:49:00,18.8,14.2,30.96,NE,47,0.6,2.3,82,0.00,CLR,,0.03,WeatherDisplay:10.37,2013-02-16 20:49:00,
2013-02-16 15:54:00,18.8,13.9,30.96,NW,309,2.8,4.6,81,0.00,CLR,,0.03,WeatherDisplay:10.37,2013-02-16 20:54:00,
2013-02-16 15:59:00,18.8,14.2,30.96,NW,321,0.5,2.3,82,0.00,CLR,,0.03,WeatherDisplay:10.37,2013-02-16 20:59:00,
2013-02-16 16:04:00,18.6,13.7,30.96,NW,315,1.8,5.8,81,0.00,CLR,,0.03,WeatherDisplay:10.37,2013-02-16 21:04:00,
2013-02-16 16:09:00,18.3,13.4,30.96,West,269,2.2,4.6,81,0.00,CLR,,0.03,WeatherDisplay:10.37,2013-02-16 21:09:00,
2013-02-16 16:14:00,18.1,13.8,30.96,WNW,294,1.6,3.5,83,0.00,CLR,,0.03,WeatherDisplay:10.37,2013-02-16 21:14:00,
2013-02-16 16:20:00,18.0,14.3,30.96,North,5,1.2,3.0,85,0.00,CLR,,0.03,WeatherDisplay:10.37,2013-02-16 21:20:00,
2013-02-16 16:25:00,18.0,14.0,30.97,NNE,33,1.9,4.0,84,0.00,CLR,,0.03,WeatherDisplay:10.37,2013-02-16 21:25:00,
2013-02-16 16:31:00,18.1,14.1,30.97,West,281,0.8,2.3,84,0.00,CLR,,0.03,WeatherDisplay:10.37,2013-02-16 21:31:00,
2013-02-16 16:36:00,18.3,14.3,30.96,NNW,335,1.3,3.5,84,0.00,CLR,,0.03,WeatherDisplay:10.37,2013-02-16 21:36:00,
2013-02-16 16:41:00,18.4,14.1,30.97,NNE,12,1.6,5.8,83,0.00,CLR,,0.03,WeatherDisplay:10.37,2013-02-16 21:41:00,
2013-02-16 16:46:00,18.5,13.9,30.97,North,360,1.6,6.9,82,0.00,CLR,,0.03,WeatherDisplay:10.37,2013-02-16 21:46:00,
2013-02-16 16:51:00,18.4,14.1,30.97,NNW,347,3.1,3.5,83,0.00,CLR,,0.03,WeatherDisplay:10.37,2013-02-16 21:51:00,
2013-02-16 16:56:00,18.3,14.0,30.97,NNE,26,0.6,2.3,83,0.00,CLR,,0.03,WeatherDisplay:10.37,2013-02-16 21:56:00,
2013-02-16 17:01:00,18.3,14.0,30.97,West,275,2.0,5.8,83,0.00,CLR,,0.03,WeatherDisplay:10.37,2013-02-16 22:01:00,
2013-02-16 17:06:00,18.2,13.9,30.97,West,277,0.8,3.5,83,0.00,CLR,,0.03,WeatherDisplay:10.37,2013-02-16 22:06:00,
2013-02-16 17:11:00,18.1,13.8,30.97,NW,315,1.0,1.2,83,0.00,CLR,,0.03,WeatherDisplay:10.37,2013-02-16 22:11:00,
2013-02-16 17:16:00,17.8,13.5,30.97,West,267,4.2,6.9,83,0.00,CLR,,0.03,WeatherDisplay:10.37,2013-02-16 22:16:00,
2013-02-16 17:21:00,17.7,13.7,30.97,NW,318,2.9,6.9,84,0.00,CLR,,0.03,WeatherDisplay:10.37,2013-02-16 22:21:00,
2013-02-16 17:26:00,17.5,13.8,30.98,NNW,329,0.8,3.5,85,0.00,CLR,,0.03,WeatherDisplay:10.37,2013-02-16 22:26:00,
2013-02-16 17:31:00,17.3,13.6,30.98,NNW,342,2.3,4.6,85,0.00,CLR,,0.03,WeatherDisplay:10.37,2013-02-16 22:31:00,
2013-02-16 17:36:00,17.2,13.7,30.98,ESE,104,1.3,3.5,86,0.00,CLR,,0.03,WeatherDisplay:10.37,2013-02-16 22:36:00,
2013-02-16 17:41:00,17.2,14.0,30.98,WNW,296,0.0,0.0,87,0.00,CLR,,0.03,WeatherDisplay:10.37,2013-02-16 22:41:00,
2013-02-16 17:47:00,17.1,14.2,30.98,WNW,299,2.0,3.0,88,0.00,CLR,,0.03,WeatherDisplay:10.37,2013-02-16 22:47:00,
2013-02-16 17:52:00,17.1,14.2,30.98,West,276,0.4,3.5,88,0.00,CLR,,0.03,WeatherDisplay:10.37,2013-02-16 22:52:00,
2013-02-16 17:57:00,17.0,14.1,30.98,WNW,294,0.4,2.3,88,0.00,CLR,,0.03,WeatherDisplay:10.37,2013-02-16 22:57:00,
2013-02-16 18:02:00,16.9,14.0,30.98,NW,316,0.0,1.2,88,0.00,CLR,,0.03,WeatherDisplay:10.37,2013-02-16 23:02:00,
2013-02-16 18:08:00,16.9,14.2,30.98,NNW,346,0.2,3.5,89,0.00,CLR,,0.03,WeatherDisplay:10.37,2013-02-16 23:08:00,
2013-02-16 18:13:00,16.9,14.5,30.99,NW,321,0.3,3.5,90,0.00,CLR,,0.03,WeatherDisplay:10.37,2013-02-16 23:13:00,
2013-02-16 18:18:00,16.8,14.6,30.99,West,277,0.0,2.0,91,0.00,CLR,,0.03,WeatherDisplay:10.37,2013-02-16 23:18:00,
2013-02-16 18:23:00,16.8,14.6,30.99,WNW,287,0.3,3.5,91,0.00,CLR,,0.03,WeatherDisplay:10.37,2013-02-16 23:23:00,
2013-02-16 18:28:00,16.7,14.5,30.99,WNW,302,0.0,2.3,91,0.00,CLR,,0.03,WeatherDisplay:10.37,2013-02-16 23:28:00,
2013-02-16 18:33:00,16.6,14.7,30.99,North,5,0.0,0.0,92,0.00,CLR,,0.03,WeatherDisplay:10.37,2013-02-16 23:33:00,
2013-02-16 18:38:00,16.5,14.6,30.99,North,9,0.0,1.2,92,0.00,CLR,,0.03,WeatherDisplay:10.37,2013-02-16 23:38:00,
2013-02-16 18:43:00,16.4,14.5,31.00,NW,304,0.1,0.0,92,0.00,CLR,,0.03,WeatherDisplay:10.37,2013-02-16 23:43:00,
2013-02-16 18:48:00,16.3,14.4,31.00,NW,308,0.0,2.3,92,0.00,CLR,,0.03,WeatherDisplay:10.37,2013-02-16 23:48:00,
2013-02-16 18:53:00,16.2,14.3,31.00,WNW,296,0.0,0.0,92,0.00,CLR,,0.03,WeatherDisplay:10.37,2013-02-16 23:53:00,
2013-02-16 18:58:00,16.1,14.4,31.00,WNW,296,0.0,2.3,93,0.00,CLR,,0.03,WeatherDisplay:10.37,2013-02-16 23:58:00,
2013-02-16 19:03:00,16.1,14.4,31.00,NNW,328,0.1,1.2,93,0.00,CLR,,0.03,WeatherDisplay:10.37,2013-02-17 00:03:00,
2013-02-16 19:08:00,16.1,14.7,31.00,SW,230,0.2,2.3,94,0.00,CLR,,0.03,WeatherDisplay:10.37,2013-02-17 00:08:00,
2013-02-16 19:13:00,16.1,14.7,31.00,West,265,0.0,0.0,94,0.00,CLR,,0.03,WeatherDisplay:10.37,2013-02-17 00:13:00,
2013-02-16 19:18:00,16.1,14.7,31.01,West,277,0.0,0.0,94,0.00,CLR,,0.03,WeatherDisplay:10.37,2013-02-17 00:18:00,
2013-02-16 19:23:00,16.1,14.7,31.01,NW,306,0.0,0.0,94,0.00,CLR,,0.03,WeatherDisplay:10.37,2013-02-17 00:23:00,
2013-02-16 19:28:00,16.1,14.7,31.01,NW,306,0.5,1.2,94,0.00,CLR,,0.03,WeatherDisplay:10.37,2013-02-17 00:28:00,
2013-02-16 19:33:00,16.1,14.7,31.01,WNW,300,0.3,1.2,94,0.00,CLR,,0.03,WeatherDisplay:10.37,2013-02-17 00:33:00,
2013-02-16 19:38:00,16.1,14.7,31.01,NW,309,0.3,0.0,94,0.00,CLR,,0.03,WeatherDisplay:10.37,2013-02-17 00:38:00,
2013-02-16 19:44:00,16.1,14.7,31.01,NW,309,0.0,0.0,94,0.00,CLR,,0.03,WeatherDisplay:10.37,2013-02-17 00:44:00,
2013-02-16 19:49:00,16.1,14.7,31.01,NW,309,0.0,0.0,94,0.00,CLR,,0.03,WeatherDisplay:10.37,2013-02-17 00:49:00,
2013-02-16 19:54:00,16.1,14.7,31.01,NW,309,0.0,0.0,94,0.00,CLR,,0.03,WeatherDisplay:10.37,2013-02-17 00:54:00,
2013-02-16 19:59:00,16.0,14.6,31.01,WNW,301,0.0,0.0,94,0.00,CLR,,0.03,WeatherDisplay:10.37,2013-02-17 00:59:00,
2013-02-16 20:04:00,15.9,14.5,31.01,WNW,301,0.0,0.0,94,0.00,CLR,,0.03,WeatherDisplay:10.37,2013-02-17 01:04:00,
2013-02-16 20:09:00,15.7,14.3,31.01,NNE,21,0.0,0.0,94,0.00,CLR,,0.03,WeatherDisplay:10.37,2013-02-17 01:09:00,
2013-02-16 20:14:00,15.5,14.1,31.02,NNE,21,0.0,0.0,94,0.00,CLR,,0.03,WeatherDisplay:10.37,2013-02-17 01:14:00,
2013-02-16 20:20:00,15.4,14.0,31.01,West,281,0.0,1.2,94,0.00,CLR,,0.03,WeatherDisplay:10.37,2013-02-17 01:20:00,
2013-02-16 20:26:00,15.3,13.9,31.02,West,281,0.0,0.0,94,0.00,CLR,,0.03,WeatherDisplay:10.37,2013-02-17 01:26:00,
2013-02-16 20:31:00,15.2,13.8,31.01,West,281,0.0,0.0,94,0.00,CLR,,0.03,WeatherDisplay:10.37,2013-02-17 01:31:00,
2013-02-16 20:36:00,15.0,13.6,31.02,WNW,284,0.0,0.0,94,0.00,CLR,,0.03,WeatherDisplay:10.37,2013-02-17 01:36:00,
2013-02-16 20:42:00,14.9,13.5,31.01,WNW,284,0.0,0.0,94,0.00,CLR,,0.03,WeatherDisplay:10.37,2013-02-17 01:42:00,
2013-02-16 20:47:00,14.8,13.4,31.01,WNW,284,0.0,0.0,94,0.00,CLR,,0.03,WeatherDisplay:10.37,2013-02-17 01:47:00,
2013-02-16 20:52:00,14.6,13.2,31.01,WNW,284,0.0,0.0,94,0.00,CLR,,0.03,WeatherDisplay:10.37,2013-02-17 01:52:00,
2013-02-16 20:57:00,14.4,12.7,31.01,WNW,284,0.0,0.0,93,0.00,CLR,,0.03,WeatherDisplay:10.37,2013-02-17 01:57:00,
2013-02-16 21:02:00,14.3,12.6,31.01,WNW,284,0.0,0.0,93,0.00,CLR,,0.03,WeatherDisplay:10.37,2013-02-17 02:02:00,
2013-02-16 21:07:00,14.0,12.3,31.01,WNW,284,0.0,0.0,93,0.00,CLR,,0.03,WeatherDisplay:10.37,2013-02-17 02:07:00,
2013-02-16 21:13:00,13.7,11.8,31.02,WNW,284,0.0,0.0,92,0.00,CLR,,0.03,WeatherDisplay:10.37,2013-02-17 02:13:00,
2013-02-16 21:19:00,13.5,11.6,31.01,WNW,284,0.0,0.0,92,0.00,CLR,,0.03,WeatherDisplay:10.37,2013-02-17 02:19:00,
2013-02-16 21:24:00,13.2,11.3,31.01,WNW,284,0.0,0.0,92,0.00,CLR,,0.03,WeatherDisplay:10.37,2013-02-17 02:24:00,
2013-02-16 21:29:00,13.0,11.1,31.01,WNW,284,0.0,0.0,92,0.00,CLR,,0.03,WeatherDisplay:10.37,2013-02-17 02:29:00,
2013-02-16 21:34:00,12.8,10.9,31.02,WNW,284,0.0,0.0,92,0.00,CLR,,0.03,WeatherDisplay:10.37,2013-02-17 02:34:00,
2013-02-16 21:39:00,12.6,10.7,31.02,WNW,284,0.0,0.0,92,0.00,CLR,,0.03,WeatherDisplay:10.37,2013-02-17 02:39:00,
2013-02-16 21:44:00,12.4,10.5,31.02,WNW,284,0.0,0.0,92,0.00,CLR,,0.03,WeatherDisplay:10.37,2013-02-17 02:44:00,
2013-02-16 21:49:00,12.2,10.3,31.02,WNW,284,0.0,0.0,92,0.00,CLR,,0.03,WeatherDisplay:10.37,2013-02-17 02:49:00,
2013-02-16 21:54:00,12.1,10.2,31.02,WNW,284,0.0,0.0,92,0.00,CLR,,0.03,WeatherDisplay:10.37,2013-02-17 02:54:00,
2013-02-16 21:59:00,11.9,10.0,31.02,WNW,284,0.0,0.0,92,0.00,CLR,,0.03,WeatherDisplay:10.37,2013-02-17 02:59:00,
2013-02-16 22:04:00,11.7,9.8,31.02,WNW,284,0.0,0.0,92,0.00,CLR,,0.03,WeatherDisplay:10.37,2013-02-17 03:04:00,
2013-02-16 22:09:00,11.6,9.7,31.02,WNW,284,0.0,0.0,92,0.00,CLR,,0.03,WeatherDisplay:10.37,2013-02-17 03:09:00,
2013-02-16 22:14:00,11.6,10.0,31.02,WNW,284,0.0,0.0,93,0.00,CLR,,0.03,WeatherDisplay:10.37,2013-02-17 03:14:00,
2013-02-16 22:20:00,11.7,10.3,31.02,WNW,284,0.0,0.0,94,0.00,CLR,,0.03,WeatherDisplay:10.37,2013-02-17 03:20:00,
2013-02-16 22:25:00,11.8,10.4,31.02,WNW,284,0.0,0.0,94,0.00,CLR,,0.03,WeatherDisplay:10.37,2013-02-17 03:25:00,
2013-02-16 22:30:00,11.9,10.7,31.02,WNW,284,0.0,0.0,95,0.00,CLR,,0.03,WeatherDisplay:10.37,2013-02-17 03:30:00,
2013-02-16 22:35:00,12.0,10.8,31.02,WNW,284,0.0,0.0,95,0.00,CLR,,0.03,WeatherDisplay:10.37,2013-02-17 03:35:00,
2013-02-16 22:40:00,12.1,10.9,31.02,WNW,284,0.0,0.0,95,0.00,CLR,,0.03,WeatherDisplay:10.37,2013-02-17 03:40:00,
2013-02-16 22:45:00,12.2,11.0,31.02,WNW,284,0.0,0.0,95,0.00,CLR,,0.03,WeatherDisplay:10.37,2013-02-17 03:45:00,
2013-02-16 22:50:00,12.3,11.1,31.02,WNW,284,0.0,0.0,95,0.00,CLR,,0.03,WeatherDisplay:10.37,2013-02-17 03:50:00,
2013-02-16 22:55:00,12.4,11.2,31.02,WNW,284,0.0,0.0,95,0.00,CLR,,0.03,WeatherDisplay:10.37,2013-02-17 03:55:00,
2013-02-16 23:00:00,12.5,11.3,31.02,NNE,31,0.0,0.0,95,0.00,CLR,,0.03,WeatherDisplay:10.37,2013-02-17 04:00:00,
2013-02-16 23:05:00,12.5,11.3,31.02,NNE,31,0.0,0.0,95,0.00,CLR,,0.03,WeatherDisplay:10.37,2013-02-17 04:05:00,
2013-02-16 23:10:00,12.5,11.3,31.02,NNW,340,0.4,1.0,95,0.00,CLR,,0.03,WeatherDisplay:10.37,2013-02-17 04:10:00,
2013-02-16 23:15:00,12.5,11.3,31.03,NNW,340,0.0,0.0,95,0.00,CLR,,0.03,WeatherDisplay:10.37,2013-02-17 04:15:00,
2013-02-16 23:20:00,12.5,11.3,31.03,NNW,340,0.0,0.0,95,0.00,CLR,,0.03,WeatherDisplay:10.37,2013-02-17 04:20:00,
2013-02-16 23:25:00,12.4,11.2,31.02,NNW,340,0.0,0.0,95,0.00,CLR,,0.03,WeatherDisplay:10.37,2013-02-17 04:25:00,
2013-02-16 23:30:00,12.3,11.1,31.02,NNW,340,0.0,0.0,95,0.00,CLR,,0.03,WeatherDisplay:10.37,2013-02-17 04:30:00,
2013-02-16 23:35:00,12.2,10.8,31.02,NNW,340,0.0,0.0,94,0.00,CLR,,0.03,WeatherDisplay:10.37,2013-02-17 04:35:00,
2013-02-16 23:40:00,12.0,10.6,31.02,NNW,340,0.0,0.0,94,0.00,CLR,,0.03,WeatherDisplay:10.37,2013-02-17 04:40:00,
2013-02-16 23:45:00,11.8,10.4,31.02,NNW,342,0.0,0.0,94,0.00,CLR,,0.03,WeatherDisplay:10.37,2013-02-17 04:45:00,
2013-02-16 23:51:00,11.6,10.2,31.02,NNW,342,0.0,0.0,94,0.00,CLR,,0.03,WeatherDisplay:10.37,2013-02-17 04:51:00,
2013-02-16 23:56:00,11.4,9.8,31.02,NNW,342,0.0,0.0,93,0.00,CLR,,0.03,WeatherDisplay:10.37,2013-02-17 04:56:00,